Weather History for Fairbanks, AK

Change the Weather History Date:

Sunday, June 30, 2013

  Actual Average Record
Temperature  
Mean Temperature 72 °F 64 °F  
Max Temperature 85 °F 74 °F 89 °F (1991)
Min Temperature 58 °F 53 °F 33 °F (1918)
Degree Days  
Heating Degree Days 0 3  
Month to date heating degree days 71 159  
Since 1 June heating degree days 71 160  
Since 1 July heating degree days 14876 13669  
Cooling Degree Days 7 2  
Month to date cooling degree days 135 23  
Year to date cooling degree days 148 24  
Since 1 June cooling degree days 135 23  
Growing Degree Days 20 (Base 50)    
Moisture  
Dew Point 53 °F    
Average Humidity 51    
Maximum Humidity 80    
Minimum Humidity 29    
Precipitation  
Precipitation 0.00 in 0.06 in 0.69 in (1980)
Month to date precipitation 0.43 1.37  
Year to date precipitation 2.77 3.53  
Snow  
Snow 0.00 in 0.00 in 0.00 in (2002)
Month to date snowfall 0.0 0.0  
Since 1 June snowfall 0.0 0.0  
Since 1 July snowfall 68.6 65.0  
Snow Depth 0.00 in    
Sea Level Pressure  
Sea Level Pressure 29.75 in    
Wind  
Wind Speed 4 mph (WSW)    
Max Wind Speed 12 mph    
Max Gust Speed 21 mph    
Visibility 7 miles    
Events      
T = Trace of Precipitation, MM = Missing Value Source: NWS Daily Summary

Daily Weather History Graph

Daily Weather History Graph

Search for Another Location

Airport:

Trip Planner

Search our weather history database for the weather conditions in past years. The results will help you decide how hot, cold, wet, or windy it might be!

Date:

Astronomy

Jun. 30, 2013 Rise Set
Actual Time 3:11 AM AKDT 12:37 AM AKDT
Civil Twilight Sun does not rise Sun does not rise
Nautical Twilight Sun does not rise Sun does not rise
Astronomical Twilight Sun does not rise Sun does not rise
Moon 12:52 AM AKDT (6/30) 3:41 PM AKDT (6/30)
Length of Visible Light 24h 00m
Length of Day
21h 26m
Last Quarter, 44% of the Moon is Illuminated
Jun 30
Last Quarter
Jul 7
New
Jul 15
First Quarter
Jul 22
Full
Jul 29
Last Quarter

Hourly Weather History & Observations

Time (AKDT) Temp. Heat Index Dew Point Humidity Pressure Visibility Wind Dir Wind Speed Gust Speed Precip Events Conditions
12:53 AM 66.9 °F - 55.0 °F 66% 29.88 in 4.0 mi NW 3.5 mph - N/A   Smoke
1:53 AM 63.0 °F - 55.0 °F 75% 29.88 in 4.0 mi NE 4.6 mph - N/A   Smoke
2:53 AM 60.1 °F - 54.0 °F 80% 29.88 in 5.0 mi NE 3.5 mph - N/A   Smoke
3:53 AM 61.0 °F - 53.1 °F 75% 29.87 in 5.0 mi Calm Calm - N/A   Smoke
4:53 AM 59.0 °F - 52.0 °F 78% 29.86 in 5.0 mi NE 4.6 mph - N/A   Smoke
5:53 AM 60.1 °F - 53.1 °F 78% 29.86 in 4.0 mi NNE 5.8 mph - N/A   Smoke
6:53 AM 64.9 °F - 53.1 °F 65% 29.84 in 4.0 mi NE 4.6 mph - N/A   Smoke
7:53 AM 66.9 °F - 53.1 °F 61% 29.84 in 4.0 mi SSE 3.5 mph - N/A   Smoke
8:53 AM 69.8 °F - 53.6 °F 56% 29.83 in 4.0 mi Calm Calm - N/A   Smoke
9:53 AM 73.4 °F - 53.6 °F 50% 29.81 in 5.0 mi East 3.5 mph - N/A   Smoke
10:53 AM 75.2 °F - 55.4 °F 50% 29.79 in 6.0 mi Variable 4.6 mph - N/A   Smoke
11:53 AM 78.8 °F - 55.4 °F 44% 29.77 in 6.0 mi Variable 3.5 mph - N/A   Smoke
12:53 PM 81.0 °F 80.7 °F 55.0 °F 41% 29.74 in 8.0 mi Variable 4.6 mph - N/A   Overcast
1:53 PM 82.0 °F - 52.0 °F 35% 29.71 in 9.0 mi Calm Calm - N/A   Mostly Cloudy
2:53 PM 82.9 °F - 52.0 °F 34% 29.69 in 10.0 mi SW 3.5 mph - N/A   Mostly Cloudy
3:53 PM 82.0 °F 81.4 °F 55.0 °F 39% 29.67 in 10.0 mi WSW 4.6 mph - N/A   Mostly Cloudy
4:53 PM 81.0 °F 80.7 °F 55.0 °F 41% 29.66 in 10.0 mi ESE 5.8 mph - N/A   Mostly Cloudy
5:53 PM 81.0 °F 80.4 °F 53.1 °F 38% 29.64 in 10.0 mi WSW 5.8 mph - N/A   Mostly Cloudy
6:53 PM 80.6 °F - 51.8 °F 37% 29.63 in 10.0 mi WSW 9.2 mph - N/A   Mostly Cloudy
7:53 PM 78.8 °F - 51.8 °F 39% 29.62 in 10.0 mi WSW 10.4 mph 17.3 mph N/A   Mostly Cloudy
8:53 PM 73.4 °F - 51.8 °F 47% 29.62 in 10.0 mi WSW 5.8 mph - N/A   Mostly Cloudy
9:53 PM 73.4 °F - 48.2 °F 41% 29.61 in 10.0 mi Variable 6.9 mph - N/A   Mostly Cloudy
10:53 PM 71.6 °F - 46.4 °F 41% 29.62 in 10.0 mi WSW 8.1 mph 20.7 mph N/A   Mostly Cloudy
11:53 PM 69.8 °F - 44.6 °F 40% 29.62 in 10.0 mi WSW 11.5 mph 17.3 mph N/A   Mostly Cloudy